STARLINK-11476, 62228

Orbit data source: Space-Track

STARLINK-11476, 62228 is a payload satellite owned by SpaceX/Seattle (US) in LEO that was launched on Thu, 05 Dec 2024 UTC via an FALCON 9 launch vehicle from the Air Force Western Test Range (AFWTR). Payload-class satellites include a variety of spacecraft equipped with specific instruments for various scientific and technological missions. These include communications satellites like Starlink; space stations such as the ISS; scientific satellites like the Hubble; Earth observation satellites from companies like Planet Labs, Umbra, and HawkEye 360; GPS; miniature CubeSats for education and research; and military/defense satellites.

Loading next visibility...
Identifier
62228, 2024-231L
Orbit
LEO
Country
Flag of USUS
Related business
Manufacturer
SpaceX/Seattle
Mission
Operational spacecraft
Bus & Motor
STARLINK V2MD, Unknown motor
Mass
960 kg wet, ~910 kg dry
Launch date (UTC)
2024-12-05 (11 months ago)
Launch vehicle
FALCON 9
Launch site
Air Force Western Test Range (AFWTR)
Object type
Payload
Rocket body
Debris
Shape & HBR
Unknown shape, 18.1 m
Radar Cross Section
Large (>1 m²)

Expand to show TLE details & history
Last TLE update: 22 hours ago

TLE from 22 hours ago
0 STARLINK-11476
1 62228U 24231L   25308.50097762  .00061312  00000-0  50604-3 0  9997
2 62228  53.1572 358.0722 0002492 150.1606 209.9554 15.69762840 53761
Epoch: 2025-11-04T12:01Z
TLE epoch observation values (Epoch: 2025-11-04T12:01:24.466Z)
Latitude
-0.00005°
Longitude
133.73313°
Altitude
361.945 km
Speed
7.693 km/s
True Right ascension
23h 52m 17s
True Declination
0° 00' 00"
Sunlit
Object was in full shadow at epoch
Visualization orbit readout
Latitude
Unknown
Longitude
Unknown
Altitude
Unknown
Speed
Unknown
Apparent Right ascension
Unknown
Apparent Declination
Unknown
Sunlit
N/A
Visualization observer readout
Local Sidereal Time
06:03:06
Azimuth
Unknown
Elevation
Unknown
Doppler factor
Unknown
Orbital elements
Apogee altitude
361.516 km
Perigee altitude
358.158 km
Semi-major axis
6,737.974 km
Eccentricity
0.00025
Inclination
53.1572°
RAAN
358.0722°
Arg. of periapsis
150.1606°
True anomaly
209.94114°
Mean anomaly
209.9554°
Eccentric anomaly
209.94827°
Mean motion
3.92418 °/min
Orbital period
91.74 mins
BSTAR
0.00050604
Loading maneuver chart data...
Computing Atmospheric mass density...
Loading historical data...
Loading historical data...
Loading historical data...
Loading historical data...
Loading historical data...
Loading historical data...
Loading historical data...

Documentation

Showing up to 5 results
|